Flag for Japan Weather past 2 weeks in Sagamihara, Japan

Now
38 °F

Clear.


Feels Like: 35 °F
Forecast: 38 / 45 °F
Wind: 5 mph from Northeast

Location: Yokota Ab

Current Time: Mar 2, 2015 at 10:01:41 PM

Latest Report: Mar 2, 2015 at 8:58 PM


Visibility: 10 mi

Pressure: 30.09 "Hg

Humidity: 56%

Dew point: 24 °F

Location of SagamiharaLocation

Historic Weather in Sagamihara — Graph

°F

Sagamihara temperature yesterday

Maximum temperature yesterday: 47 °F (at 11:58 PM)
Minimum temperature yesterday: 38 °F (at 4:58 AM)
Average temperature yesterday: 41 °F

Past Weeks' High & Low Weather Summary

 TemperatureHumidityPressure
High65 °F (Feb 23, 1:58 PM)100% (Feb 17, 9:04 PM)30.45 "Hg (Feb 17, 9:04 PM)
Low24 °F (Feb 16, 6:58 AM)14% (Feb 16, 12:58 PM)29.50 "Hg (Mar 1, 9:59 PM)
Average43 °F71%30.03 "Hg
* Reported Feb 15 8:58 PM — Mar 2 8:58 PM, Sagamihara, Weather by CustomWeather, © 2015

Note: Actual official high and low records may vary slightly from our data, if they occured in-between our weather recording intervals... More about our weather records

Advertising

Sagamihara weather history for previous 24 hours

 ConditionsComfort  
Time TempWeatherWind HumidityBarometerVisibility
8:58 PM
Mon, Mar 2
38 °FClear.5 mph56%30.09 "Hg10 mi
7:58 PM42 °FClear.12 mph49%30.08 "Hg10 mi
6:58 PM44 °FClear.6 mph43%30.06 "Hg10 mi
5:58 PM46 °FClear.9 mph36%30.01 "Hg10 mi
4:58 PM49 °FSunny.12 mph32%29.98 "Hg10 mi
3:58 PM52 °FSunny.18 mph29%29.96 "Hg10 mi
2:58 PM55 °FSunny.16 mph23%29.93 "Hg10 mi
1:58 PM56 °FSunny.13 mph21%29.91 "Hg10 mi
12:58 PM56 °FSunny.18 mph24%29.90 "Hg10 mi
11:58 AM53 °FSunny.20 mph26%29.90 "Hg10 mi
10:58 AM51 °FSunny.24 mph30%29.91 "Hg10 mi
9:58 AM51 °FSunny.25 mph34%29.90 "Hg10 mi
8:58 AM49 °FSunny.16 mph38%29.88 "Hg10 mi
7:58 AM44 °FSunny.5 mph71%29.85 "Hg10 mi
6:58 AM38 °FSunny.5 mph85%29.81 "Hg10 mi
5:58 AM41 °FClear.8 mph58%29.76 "Hg10 mi
4:58 AM43 °FClear.12 mph55%29.73 "Hg10 mi
3:58 AM44 °FClear.16 mph57%29.68 "Hg10 mi
2:58 AM45 °FClear.16 mph60%29.67 "Hg10 mi
1:58 AM43 °FClear.9 mph82%29.65 "Hg10 mi
12:58 AM43 °FPassing clouds.10 mph91%29.61 "Hg10 mi
11:58 PM
Sun, Mar 1
47 °FPassing clouds.16 mph70%29.57 "Hg10 mi
10:58 PM46 °FOvercast.10 mph82%29.53 "Hg10 mi
Weather by CustomWeather, © 2015

See weather overviewHow to use our weather pages